{"data":{"norad_id":53943,"intl_designator":"2022-120A","name":"YAOGAN-36 01A","alt_names":[],"object_type":"PAYLOAD","status":"ACTIVE","operator":null,"country":"PRC","launch_date":"2022-09-26","launch_site_code":"XICLF","launch_vehicle":null,"mission":null,"orbit_class":"UNKNOWN","rcs_meters":null,"size_class":null,"mass_kg":null,"dimensions":null,"purposes":[],"wikipedia_slug":null,"has_3d_model":false,"image_url":null,"decayed_at":null,"tle_current":{"epoch":"2026-05-25T04:56:12.290784Z","epoch_age_seconds":51311,"freshness":"FRESH","line1":"1 53943U 22120A   26145.20569781  .00007505  00000+0  30977-3 0  9992","line2":"2 53943  34.9916  69.4377 0003989 165.3422 194.7408 15.23318681203800","mean_motion":15.23318681,"eccentricity":0.0003989,"inclination_deg":34.9916,"raan_deg":69.4377,"arg_perigee_deg":165.3422,"mean_anomaly_deg":194.7408,"bstar":0.00030977,"rev_number":20380,"period_min":94.530449731943,"perigee_km":493.09672537838,"apogee_km":498.58078323517,"semimajor_km":6873.9757543068,"source":"CELESTRAK","updated_at":"2026-05-25T13:37:58.481746Z"}}}